Current weather by "City, St" or "zip code"  
 
Advertise Here

Current Conditions: Spokane, Spokane International Airport, WA

Mostly Cloudy


30.0 F

Last Updated on Jan 20 2021, 10:53 am PST
Humidity: 85%
Wind Speed: NE 6.9 mph
Barometer 30.13 in
Dewpoint: 26.1 F
Visibility: 10.00 mi
Precip: --
Heat Index: NA
Wind Chill: 23 F
Current conditions at:

Spokane, Spokane International Airport, WA (KGEG)

Lat: 47.62139 Lon: 117.52778

Local Radar Image active severe weather and emergency alerts image image weather storm and storm spotter reports image weather observation monitoring service image
Local
Radar
Active
Alerts
Storm Reports Obs
Monitoring

Sign-up For Email & Text Message Weather Alert Notification Services


Advertise Here

Observation History for Spokane, Spokane International Airport, WA


Time Wind
(mph)
Vis
(mi)
Weather Precip (in) Temperature (F) Relative
Humidity
Wind
Chill
(F)
Heat
Index
(F)
Pressure
Air Dwpt altimeter
(in)
sea level
(mb)
Rmks
10:53 am PST NE 6.9 10.00 Mostly Cloudy -- 30.0 26.1 85% 23 NA 30.13 1022.4
9:53 am PST NE 6.9 10.00 Mostly Cloudy -- 30.0 26.1 85% 23 NA 30.13 1022.5
8:53 am PST NE 3.5 7.00 Partly Cloudy -- 29.0 25.0 85% NA NA 30.13 1022.7
7:53 am PST NE 5.8 7.00 Fog in Vicinity -- 27.0 24.1 89% 20 NA 30.12 1022.5
6:53 am PST NE 4.6 9.00 Fog in Vicinity -- 27.0 25.0 92% 22 NA 30.12 1022.5
5:53 am PST NE 5.8 8.00 Fog in Vicinity -- 27.0 25.0 92% 20 NA 30.12 1022.4
4:53 am PST E 3.5 7.00 Fog in Vicinity -- 27.0 24.1 89% NA NA 30.13 1022.8
3:53 am PST N 0.0 10.00 Partly Cloudy -- 27.0 24.1 89% NA NA 30.14 1022.8
2:53 am PST E 3.5 10.00 Mostly Cloudy -- 27.0 24.1 89% NA NA 30.16 1023.4
1:53 am PST S 3.5 10.00 Mostly Cloudy -- 27.0 23.0 85% NA NA 30.16 1023.8
12:53 am PST N 0.0 10.00 Mostly Cloudy -- 28.0 25.0 88% NA NA 30.18 1024.4
11:53 pm PST N 0.0 10.00 Mostly Cloudy -- 30.0 25.0 82% NA NA 30.19 1024.4
10:53 pm PST N 0.0 10.00 Overcast -- 31.0 26.1 82% NA NA 30.21 1025.2
9:53 pm PST S 8.1 10.00 Overcast -- 31.0 26.1 82% 24 NA 30.21 1025.4
8:53 pm PST S 8.1 10.00 Overcast -- 31.0 27.0 85% 24 NA 30.23 1026.0
7:53 pm PST S 5.8 10.00 Overcast -- 31.0 27.0 85% 25 NA 30.24 1026.6
6:53 pm PST S 6.9 10.00 Overcast -- 31.0 27.0 85% 24 NA 30.27 1027.5
5:53 pm PST SE 4.6 10.00 Overcast -- 32.0 27.0 82% 27 NA 30.31 1028.8
4:53 pm PST N 0.0 10.00 Overcast -- 33.0 27.0 78% NA NA 30.32 1029.3
3:53 pm PST S 6.9 10.00 Overcast -- 33.0 27.0 78% 27 NA 30.33 1029.5
2:53 pm PST SW 11.5 10.00 Overcast -- 34.0 27.0 76% 26 NA 30.35 1030.2
1:53 pm PST SW 8.1 10.00 Overcast -- 32.0 27.0 82% 25 NA 30.38 1031.3
12:53 pm PST S 8.1 10.00 Overcast -- 31.0 27.0 85% 24 NA 30.41 1032.4
11:53 am PST SE 4.6 10.00 Overcast -- 31.0 28.0 89% 26 NA 30.44 1033.2

Regional Weather Observation


Fairchild Air Force Base, WA (KSKA)

Fair
30.0 F

Spokane, Spokane International Airport, WA (KGEG)

Mostly Cloudy
30.0 F

Spokane, Felts Field, WA (KSFF)

Fair
33.0 F

Coeur dAlene Airport - Pappy Boyington Field, ID (KCOE)

Fair
34.0 F

Sandpoint, Sandpoint Airport, ID (KSZT)

Fair
32.0 F

Pullman / Moscow Regional Airport, WA (KPUW)

Overcast
36.0 F